TimeMDT,TemperatureF,Dew PointF,Humidity,Sea Level PressureIn,VisibilityMPH,Wind Direction,Wind SpeedMPH,Gust SpeedMPH,PrecipitationIn,Events,Conditions,WindDirDegrees,DateUTC
12:51 AM,87.1,48.0,26,29.67,5.0,SSE,19.6,25.3,N/A,,Widespread Dust,160,2013-06-20 06:51:00
1:51 AM,84.0,48.9,29,29.69,7.0,SSE,11.5,-,0.00,,Mostly Cloudy,160,2013-06-20 07:51:00
2:51 AM,82.9,48.0,29,29.68,7.0,SE,9.2,-,N/A,,Mostly Cloudy,130,2013-06-20 08:51:00
3:51 AM,82.0,48.9,31,29.68,10.0,SSE,12.7,-,N/A,,Mostly Cloudy,150,2013-06-20 09:51:00
4:51 AM,81.0,48.0,31,29.69,10.0,SSE,12.7,-,N/A,,Scattered Clouds,160,2013-06-20 10:51:00
5:51 AM,79.0,48.9,35,29.70,10.0,SSE,12.7,-,N/A,,Partly Cloudy,150,2013-06-20 11:51:00
6:51 AM,79.0,48.9,35,29.73,10.0,SSE,8.1,-,N/A,,Scattered Clouds,160,2013-06-20 12:51:00
7:51 AM,81.0,50.0,34,29.75,10.0,South,6.9,-,N/A,,Scattered Clouds,170,2013-06-20 13:51:00
8:51 AM,84.0,50.0,31,29.76,10.0,South,8.1,-,N/A,,Partly Cloudy,180,2013-06-20 14:51:00
9:51 AM,89.1,48.0,24,29.75,10.0,South,10.4,-,N/A,,Scattered Clouds,190,2013-06-20 15:51:00
10:51 AM,91.9,45.0,20,29.74,10.0,Variable,5.8,-,N/A,,Partly Cloudy,0,2013-06-20 16:51:00
11:51 AM,95.0,39.9,15,29.73,10.0,SSE,4.6,-,N/A,,Partly Cloudy,160,2013-06-20 17:51:00
12:51 PM,98.1,39.9,13,29.70,10.0,Variable,6.9,-,N/A,,Partly Cloudy,0,2013-06-20 18:51:00
1:51 PM,99.0,39.0,13,29.68,10.0,Variable,3.5,-,N/A,,Scattered Clouds,0,2013-06-20 19:51:00
2:51 PM,99.0,37.9,12,29.65,10.0,Variable,5.8,16.1,N/A,,Scattered Clouds,0,2013-06-20 20:51:00
3:51 PM,99.0,37.9,12,29.63,10.0,SSW,8.1,18.4,N/A,,Mostly Cloudy,200,2013-06-20 21:51:00
4:34 PM,96.8,41.0,15,29.89,10.0,SW,26.5,36.8,N/A,Thunderstorm,Thunderstorm,230,2013-06-20 22:34:00
4:51 PM,95.0,37.9,14,29.67,10.0,South,31.1,40.3,0.00,Rain,Light Rain,190,2013-06-20 22:51:00
5:25 PM,96.8,33.8,11,29.87,10.0,West,13.8,31.1,0.00,,Mostly Cloudy,260,2013-06-20 23:25:00
5:51 PM,99.0,34.0,10,29.62,10.0,WSW,12.7,20.7,0.00,,Mostly Cloudy,250,2013-06-20 23:51:00
6:51 PM,96.1,39.9,14,29.64,10.0,West,28.8,38.0,0.00,Rain,Light Rain,280,2013-06-21 00:51:00
7:11 PM,93.2,41.0,16,29.90,10.0,SE,11.5,17.3,0.00,,Mostly Cloudy,130,2013-06-21 01:11:00
7:51 PM,89.1,46.9,23,29.67,8.0,SSE,15.0,25.3,0.00,,Mostly Cloudy,160,2013-06-21 01:51:00
8:51 PM,84.0,50.0,31,29.69,10.0,SSE,25.3,32.2,N/A,,Mostly Cloudy,150,2013-06-21 02:51:00
9:51 PM,82.9,50.0,32,29.72,10.0,SSE,17.3,-,N/A,,Mostly Cloudy,150,2013-06-21 03:51:00
10:51 PM,82.0,51.1,34,29.75,10.0,SSE,21.9,26.5,N/A,,Mostly Cloudy,150,2013-06-21 04:51:00
11:51 PM,80.1,52.0,38,29.77,10.0,SSE,20.7,28.8,N/A,,Scattered Clouds,150,2013-06-21 05:51:00